Henderson, KY

5:25 AM CST on December 13, 2019 (GMT -0600)
Henderson City-County

Weather History for KEHR - October, 2019

Change the Weather History Date:

Monday, October 14, 2019

  Actual Average Record
Temperature  
Mean Temperature 56 °F -  
Max Temperature 72 °F 72 °F 91 °F (1935)
Min Temperature 39 °F 47 °F 28 °F (1987)
Degree Days  
Heating Degree Days 10    
Growing Degree Days 6 (Base 50)    
Moisture  
Dew Point 39 °F    
Average Humidity 61    
Maximum Humidity 96    
Minimum Humidity 28    
Precipitation  
Precipitation 0.00 in - - ()
Sea Level Pressure  
Sea Level Pressure 30.09 in    
Wind  
Wind Speed 4 mph (WNW)    
Max Wind Speed 10 mph    
Max Gust Speed -    
Visibility 10 miles    
Events      
Averages and records for this station are not official NWS values.
T = Trace of Precipitation, MM = Missing Value Source: NWS Daily Summary

Daily Weather History Graph

Daily Weather History Graph

Search for Another Location

Airport or City:

Astronomy

Oct. 14, 2019 Rise Set
Actual Time 6:57 AM CDT 6:14 PM CDT
Civil Twilight 6:31 AM CDT 6:41 PM CDT
Nautical Twilight 6:01 AM CDT 7:11 PM CDT
Astronomical Twilight 5:30 AM CDT 7:42 PM CDT
Moon 7:05 PM CDT (10/14) 7:29 AM CDT (10/14)
Length of Visible Light 12h 09m
Length of Day
11h 16m
Full, 99% of the Moon is Illuminated
Oct 14
Full
Oct 21
Last Quarter
Oct 27
New
Nov 4
First Quarter
Nov 12
Full

Hourly Weather History & Observations

Time (CDT) Temp. Windchill Dew Point Humidity Pressure Visibility Wind Dir Wind Speed Gust Speed Precip Events Conditions
12:56 AM 48.9 °F - 39.0 °F 69% 30.02 in 10.0 mi SW 10.4 mph - N/A   Clear
1:56 AM 46.9 °F - 39.0 °F 74% 30.03 in 10.0 mi SW 8.1 mph - N/A   Clear
2:56 AM 44.1 °F 42.5 °F 37.9 °F 79% 30.05 in 10.0 mi WSW 3.5 mph - N/A   Clear
3:56 AM 43.0 °F - 39.0 °F 86% 30.05 in 10.0 mi Calm Calm - N/A   Clear
4:56 AM 39.9 °F 35.8 °F 37.0 °F 89% 30.07 in 10.0 mi SSW 5.8 mph - N/A   Clear
5:56 AM 42.1 °F - 37.9 °F 85% 30.09 in 10.0 mi Calm Calm - N/A   Clear
6:56 AM 39.0 °F - 37.9 °F 96% 30.10 in 10.0 mi Calm Calm - N/A   Clear
7:56 AM 42.1 °F 40.2 °F 39.9 °F 92% 30.12 in 10.0 mi SSW 3.5 mph - N/A   Clear
8:56 AM 52.0 °F - 43.0 °F 71% 30.14 in 10.0 mi Calm Calm - N/A   Clear
9:56 AM 57.9 °F - 44.1 °F 60% 30.15 in 10.0 mi Calm Calm - N/A   Clear
10:56 AM 63.0 °F - 37.9 °F 40% 30.15 in 10.0 mi West 4.6 mph - N/A   Clear
11:56 AM 66.0 °F - 35.1 °F 32% 30.14 in 10.0 mi Calm Calm - N/A   Clear
12:56 PM 70.0 °F - 36.0 °F 29% 30.12 in 10.0 mi WNW 4.6 mph - N/A   Clear
1:56 PM 71.1 °F - 36.0 °F 28% 30.09 in 10.0 mi NNE 8.1 mph - N/A   Clear
2:56 PM 72.0 °F - 37.0 °F 28% 30.07 in 10.0 mi ENE 5.8 mph - N/A   Clear
3:56 PM 72.0 °F - 37.0 °F 28% 30.07 in 10.0 mi NNE 6.9 mph - N/A   Clear
4:56 PM 71.1 °F - 37.0 °F 29% 30.07 in 10.0 mi North 5.8 mph - N/A   Clear
5:56 PM 68.0 °F - 39.0 °F 35% 30.06 in 10.0 mi North 3.5 mph - N/A   Clear
6:56 PM 57.0 °F - 39.9 °F 53% 30.08 in 6.0 mi Calm Calm - N/A   Haze
7:56 PM 52.0 °F - 41.0 °F 66% 30.09 in 9.0 mi Calm Calm - N/A   Clear
8:56 PM 50.0 °F - 41.0 °F 71% 30.08 in 10.0 mi Calm Calm - N/A   Clear
9:56 PM 48.0 °F - 39.9 °F 74% 30.08 in 10.0 mi Calm Calm - N/A   Clear
10:56 PM 46.0 °F - 39.0 °F 76% 30.08 in 10.0 mi Calm Calm - N/A   Clear
11:56 PM 45.0 °F - 39.9 °F 82% 30.07 in 10.0 mi Calm Calm - N/A   Clear